Temp
-10 -10 -10 -10 -9 -9 -9 -9 -9 -9 -9 -9 -9 -9 -9 -9 -9 -9 -9 -9 -9 -10 -10 -10 -11 -11 -11 -11 -11 -11 -11 -12 -12 -12 -11 -11 -11 -11 -11 -11 -11 -10 -10
-10 -10 -10 -10 -9 -9 -9 -9 -9 -9 -9 -9 -9 -9 -9 -9 -9 -9 -9 -10 -10 -10 -11 -11 -11 -11 -12 -12 -12 -12 -12 -12 -12 -12 -12 -12 -12 -11 -11 -11 -11 -11 -11
-10 -10 -10 -9 -9 -9 -9 -9 -9 -9 -9 -9 -9 -9 -9 -9 -9 -10 -10 -10 -11 -11 -12 -12 -12 -12 -12 -12 -12 -12 -12 -12 -13 -13 -13 -12 -12 -12 -12 -12 -12 -12 -11
-10 -10 -10 -9 -9 -9 -9 -9 -9 -9 -10 -10 -10 -10 -10 -10 -10 -11 -11 -12 -12 -12 -12 -12 -12 -12 -12 -12 -12 -12 -12 -12 -13 -13 -13 -13 -12 -12 -12 -12 -12 -12 -12
-10 -10 -10 -9 -9 -9 -9 -9 -10 -10 -10 -10 -10 -10 -10 -11 -11 -12 -12 -12 -12 -12 -12 -12 -12 -12 -12 -12 -12 -12 -12 -12 -13 -13 -13 -13 -13 -13 -12 -12 -12 -12 -13
-10 -10 -10 -10 -10 -10 -10 -10 -10 -10 -10 -10 -11 -11 -12 -12 -12 -12 -12 -12 -12 -12 -12 -12 -12 -12 -12 -13 -13 -13 -12 -13 -13 -14 -13 -14 -13 -12 -12 -12 -13 -13 -12
-10 -10 -10 -10 -10 -10 -10 -10 -11 -11 -11 -11 -12 -12 -12 -12 -12 -12 -12 -12 -12 -12 -12 -12 -12 -12 -13 -13 -13 -12 -13 -13 -14 -14 -14 -14 -13 -12 -13 -13 -13 -13 -12
-10 -10 -11 -11 -11 -11 -11 -11 -11 -11 -12 -13 -13 -12 -12 -12 -12 -12 -12 -12 -12 -12 -12 -12 -12 -12 -12 -13 -13 -13 -13 -14 -14 -14 -15 -14 -13 -13 -13 -12 -13 -12 -12
-11 -11 -11 -11 -11 -12 -12 -12 -12 -12 -13 -13 -13 -13 -13 -13 -12 -13 -13 -13 -13 -13 -13 -12 -12 -12 -13 -14 -13 -14 -15 -16 -16 -15 -15 -15 -14 -14 -14 -13 -13 -12 -12
-11 -11 -12 -12 -12 -13 -13 -13 -14 -14 -13 -13 -13 -13 -13 -13 -13 -13 -13 -13 -13 -13 -12 -12 -12 -12 -14 -14 -14 -15 -17 -18 -18 -17 -16 -15 -15 -14 -14 -13 -13 -13 -13
-12 -12 -12 -13 -13 -14 -14 -14 -14 -14 -14 -14 -13 -14 -14 -14 -14 -13 -13 -13 -13 -13 -13 -12 -12 -13 -14 -14 -15 -16 -17 -18 -19 -18 -17 -16 -15 -15 -14 -14 -13 -14 -13
-13 -13 -13 -14 -14 -15 -15 -15 -15 -14 -14 -14 -14 -14 -14 -14 -14 -14 -13 -13 -13 -13 -13 -13 -12 -13 -14 -14 -15 -16 -17 -17 -18 -17 -16 -16 -15 -16 -14 -14 -14 -14 -14
-13 -14 -15 -15 -15 -16 -15 -15 -15 -15 -15 -15 -15 -15 -14 -14 -14 -14 -13 -13 -13 -13 -13 -13 -13 -14 -14 -15 -15 -16 -17 -17 -17 -16 -16 -16 -16 -16 -15 -14 -14 -14 -14
-14 -14 -15 -16 -16 -16 -16 -16 -15 -15 -15 -15 -15 -15 -15 -15 -15 -14 -14 -13 -13 -13 -13 -14 -14 -14 -15 -15 -15 -16 -16 -17 -16 -17 -17 -15 -15 -14 -16 -15 -15 -15 -15
-14 -15 -16 -16 -16 -16 -16 -15 -15 -15 -15 -15 -15 -15 -15 -15 -15 -15 -15 -14 -14 -14 -14 -14 -14 -14 -15 -15 -15 -16 -16 -16 -16 -16 -17 -17 -16 -16 -16 -15 -16 -16 -15
-15 -15 -16 -16 -16 -16 -16 -16 -16 -15 -15 -15 -15 -15 -15 -15 -15 -15 -15 -15 -14 -14 -14 -14 -14 -15 -15 -15 -15 -15 -16 -15 -15 -16 -16 -16 -16 -16 -16 -16 -16 -16 -16
-15 -16 -16 -16 -16 -16 -16 -16 -16 -15 -15 -15 -15 -15 -15 -15 -15 -15 -15 -15 -15 -14 -14 -14 -14 -15 -15 -15 -15 -15 -15 -15 -15 -15 -15 -16 -16 -16 -15 -16 -16 -16 -16
-16 -16 -16 -16 -16 -16 -16 -16 -16 -16 -15 -15 -15 -15 -15 -15 -15 -15 -15 -15 -15 -14 -14 -14 -14 -14 -15 -15 -15 -15 -15 -15 -15 -16 -16 -16 -16 -16 -17 -17 -17 -16 -16
-16 -16 -16 -16 -16 -16 -16 -16 -16 -16 -15 -15 -15 -15 -15 -15 -15 -15 -15 -15 -14 -14 -14 -15 -14 -14 -15 -15 -15 -15 -15 -15 -15 -15 -15 -16 -16 -16 -16 -16 -16 -16 -16
-16 -16 -16 -16 -16 -16 -16 -16 -16 -16 -16 -15 -15 -15 -15 -15 -15 -15 -15 -15 -15 -14 -14 -14 -14 -14 -15 -15 -15 -15 -15 -15 -15 -15 -15 -15 -15 -15 -15 -15 -15 -15 -15
-16 -16 -16 -16 -16 -16 -16 -16 -16 -16 -16 -16 -15 -15 -15 -15 -15 -15 -15 -15 -15 -15 -15 -14 -14 -14 -14 -14 -15 -15 -15 -15 -15 -15 -15 -15 -15 -15 -15 -15 -15 -14 -14
-16 -16 -16 -16 -16 -16 -16 -16 -16 -16 -16 -16 -15 -15 -15 -15 -15 -15 -15 -15 -15 -15 -15 -15 -15 -15 -14 -14 -14 -15 -14 -15 -15 -14 -14 -15 -15 -14 -14 -14 -14 -14 -14
-17 -17 -16 -16 -16 -16 -16 -16 -16 -16 -16 -16 -15 -15 -15 -15 -15 -15 -15 -15 -15 -15 -15 -15 -15 -15 -14 -14 -14 -14 -14 -14 -15 -14 -14 -14 -14 -14 -14 -14 -14 -14 -14
-17 -17 -17 -17 -17 -16 -16 -16 -16 -16 -16 -16 -16 -15 -15 -15 -15 -15 -15 -15 -15 -15 -15 -15 -15 -15 -15 -15 -14 -14 -14 -14 -14 -14 -14 -14 -14 -14 -14 -14 -14 -14 -14
-16 -16 -17 -17 -17 -17 -17 -16 -16 -16 -16 -16 -16 -16 -15 -15 -15 -15 -15 -15 -15 -15 -15 -15 -15 -15 -15 -15 -15 -15 -14 -14 -14 -14 -14 -14 -14 -14 -14 -14 -14 -14 -14
-16 -16 -16 -16 -16 -16 -16 -16 -16 -16 -16 -16 -16 -16 -16 -16 -16 -15 -15 -15 -15 -15 -15 -15 -15 -15 -15 -15 -15 -15 -15 -15 -15 -15 -15 -15 -14 -14 -14 -14 -15 -15 -15
Height
5846 5844 5841 5838 5835 5832 5829 5826 5822 5819 5816 5813 5810 5807 5805 5802 5800 5798 5796 5794 5791 5789 5788 5786 5784 5783 5782 5780 5779 5778 5778 5777 5778 5779 5780 5781 5782 5784 5785 5786 5787 5788 5789
5841 5838 5835 5832 5828 5824 5820 5817 5814 5811 5808 5805 5801 5799 5796 5794 5792 5789 5786 5784 5782 5780 5779 5778 5777 5775 5774 5772 5771 5769 5768 5768 5767 5768 5769 5771 5772 5774 5776 5778 5780 5781 5782
5835 5831 5828 5824 5820 5816 5811 5808 5805 5801 5798 5795 5792 5791 5788 5786 5783 5780 5777 5775 5772 5771 5770 5770 5769 5768 5766 5764 5763 5761 5760 5758 5757 5757 5757 5759 5761 5764 5766 5768 5770 5772 5773
5828 5824 5820 5815 5811 5807 5803 5799 5795 5792 5789 5787 5784 5782 5779 5776 5773 5770 5768 5767 5765 5764 5763 5762 5761 5759 5757 5755 5754 5751 5749 5747 5745 5744 5745 5747 5749 5752 5755 5757 5760 5763 5765
5819 5815 5810 5806 5801 5797 5794 5790 5787 5783 5780 5778 5776 5773 5769 5767 5765 5763 5763 5761 5759 5758 5757 5754 5752 5750 5748 5745 5742 5739 5736 5733 5729 5728 5729 5733 5737 5740 5742 5744 5747 5751 5755
5810 5806 5801 5796 5791 5787 5784 5782 5779 5775 5772 5770 5767 5764 5761 5760 5760 5758 5757 5755 5753 5751 5750 5747 5744 5741 5737 5733 5728 5723 5718 5711 5707 5706 5711 5717 5723 5728 5730 5731 5735 5739 5742
5800 5796 5790 5786 5781 5778 5776 5773 5770 5768 5764 5761 5758 5757 5755 5754 5753 5751 5749 5748 5746 5744 5742 5739 5735 5732 5727 5721 5714 5706 5698 5692 5689 5688 5691 5698 5706 5714 5712 5714 5720 5726 5733
5789 5785 5781 5776 5773 5770 5768 5765 5762 5760 5757 5754 5752 5750 5749 5749 5747 5745 5743 5742 5740 5737 5735 5731 5727 5723 5715 5708 5699 5689 5679 5672 5671 5672 5674 5680 5688 5682 5697 5694 5704 5711 5718
5779 5775 5771 5767 5764 5761 5758 5756 5754 5752 5751 5749 5746 5745 5743 5741 5740 5739 5737 5734 5732 5730 5727 5723 5718 5712 5704 5696 5685 5671 5658 5649 5648 5653 5659 5664 5669 5678 5678 5684 5695 5703 5706
5768 5764 5760 5757 5754 5752 5750 5747 5746 5745 5744 5743 5742 5740 5737 5735 5734 5733 5731 5728 5726 5723 5720 5715 5709 5702 5694 5686 5673 5656 5642 5630 5625 5631 5643 5652 5657 5665 5673 5679 5686 5692 5695
5757 5753 5749 5746 5744 5742 5741 5740 5739 5738 5738 5737 5735 5734 5732 5730 5728 5727 5725 5722 5720 5717 5713 5707 5701 5693 5686 5676 5663 5649 5636 5625 5622 5625 5635 5646 5653 5658 5665 5673 5678 5684 5688
5746 5742 5737 5735 5734 5734 5734 5734 5733 5733 5732 5730 5729 5727 5726 5725 5723 5722 5720 5717 5714 5711 5706 5700 5693 5686 5679 5669 5657 5646 5636 5629 5624 5627 5634 5641 5647 5652 5658 5663 5670 5675 5681
5736 5732 5729 5728 5728 5728 5729 5728 5728 5727 5725 5724 5723 5722 5721 5719 5717 5715 5713 5711 5708 5704 5700 5694 5687 5680 5674 5666 5656 5646 5638 5633 5628 5628 5635 5633 5641 5646 5649 5655 5662 5666 5671
5729 5725 5723 5722 5723 5724 5725 5725 5724 5722 5721 5720 5719 5718 5716 5714 5711 5709 5707 5705 5701 5699 5695 5689 5683 5676 5669 5663 5656 5647 5641 5636 5634 5634 5627 5626 5634 5629 5643 5647 5651 5657 5664
5724 5720 5719 5719 5719 5720 5721 5720 5719 5718 5717 5716 5714 5713 5712 5709 5707 5704 5701 5699 5696 5693 5690 5686 5680 5673 5667 5662 5656 5650 5643 5638 5636 5632 5634 5634 5635 5636 5639 5643 5645 5653 5660
5718 5716 5715 5716 5716 5717 5717 5716 5715 5714 5713 5712 5710 5709 5707 5705 5702 5700 5697 5694 5691 5688 5685 5681 5677 5672 5666 5660 5656 5651 5646 5641 5636 5633 5632 5633 5634 5635 5636 5640 5643 5646 5651
5713 5712 5710 5710 5712 5712 5712 5712 5710 5709 5708 5707 5705 5704 5702 5700 5698 5695 5693 5690 5687 5683 5680 5677 5673 5669 5664 5659 5654 5650 5647 5643 5639 5636 5633 5630 5631 5632 5634 5637 5640 5642 5646
5708 5707 5705 5705 5705 5706 5706 5705 5705 5704 5703 5702 5700 5699 5697 5695 5693 5690 5688 5685 5681 5678 5675 5672 5668 5665 5661 5657 5652 5649 5646 5643 5640 5637 5633 5631 5630 5630 5631 5632 5634 5636 5640
5701 5700 5699 5699 5699 5699 5699 5698 5698 5697 5697 5696 5694 5693 5691 5689 5687 5684 5682 5679 5676 5673 5670 5667 5663 5660 5657 5654 5650 5646 5642 5640 5637 5635 5633 5631 5629 5628 5628 5628 5629 5631 5632
5694 5693 5693 5693 5692 5692 5691 5690 5690 5690 5689 5688 5688 5686 5684 5682 5681 5678 5676 5673 5670 5667 5665 5662 5658 5655 5652 5649 5645 5642 5638 5635 5633 5631 5630 5628 5627 5626 5624 5625 5626 5626 5627
5686 5686 5686 5685 5684 5684 5683 5683 5682 5682 5681 5680 5679 5678 5677 5675 5673 5672 5669 5667 5664 5661 5659 5656 5653 5650 5647 5644 5641 5637 5634 5631 5628 5625 5623 5622 5622 5621 5621 5620 5621 5621 5621
5677 5677 5675 5675 5675 5674 5674 5673 5673 5673 5672 5671 5670 5670 5668 5667 5665 5663 5661 5659 5657 5654 5652 5649 5646 5643 5640 5638 5635 5632 5628 5626 5623 5620 5618 5616 5614 5614 5614 5613 5613 5614 5614
5667 5666 5666 5665 5664 5663 5662 5662 5663 5663 5663 5662 5661 5659 5658 5657 5655 5654 5652 5651 5648 5646 5643 5642 5639 5636 5633 5630 5627 5624 5621 5618 5616 5613 5612 5610 5608 5607 5606 5606 5605 5605 5606
5657 5655 5655 5654 5653 5650 5648 5649 5650 5652 5652 5651 5650 5649 5648 5646 5644 5643 5643 5640 5638 5636 5634 5632 5630 5627 5625 5622 5619 5617 5614 5611 5608 5605 5603 5601 5600 5599 5598 5598 5597 5595 5595
5648 5646 5644 5642 5640 5638 5636 5637 5638 5640 5641 5640 5637 5636 5635 5634 5631 5631 5631 5629 5627 5623 5623 5622 5619 5617 5614 5612 5609 5607 5604 5602 5599 5596 5594 5592 5589 5588 5588 5587 5586 5584 5583
5638 5636 5634 5631 5629 5627 5625 5625 5625 5626 5628 5626 5625 5624 5621 5620 5618 5617 5618 5616 5614 5608 5610 5609 5607 5604 5602 5600 5597 5595 5593 5590 5587 5585 5583 5582 5579 5577 5576 5574 5573 5571 5570
Wind_Speed
28 29 31 33 34 36 37 38 38 39 40 41 42 42 42 42 42 43 43 43 44 44 43 41 40 39 39 40 40 40 40 41 43 43 43 43 41 38 37 36 35 33 31
30 32 34 37 38 40 41 41 41 42 42 43 43 41 41 41 42 44 45 45 45 44 43 40 34 31 30 31 33 35 37 39 41 43 44 45 44 43 40 38 37 36 35
34 36 38 41 42 43 44 44 43 44 44 41 40 39 40 43 45 46 46 45 41 33 28 26 26 25 25 30 33 36 41 46 47 47 45 44 46 44 42 41 39 39 39
38 40 42 44 45 46 46 44 42 41 39 39 39 41 44 46 46 43 36 27 24 25 27 24 26 26 31 35 38 43 47 49 51 53 51 47 45 46 45 44 42 40 40
42 44 47 49 50 49 46 43 40 38 38 39 41 44 44 38 28 22 23 25 27 26 24 27 30 34 38 43 46 49 51 57 63 62 57 52 46 45 48 49 46 43 43
47 49 52 54 53 49 43 40 38 39 40 40 42 38 26 22 22 24 26 27 24 25 29 31 35 40 45 48 51 52 58 57 57 59 59 53 49 38 52 51 49 47 45
51 54 54 51 46 42 41 40 41 40 39 39 32 24 23 24 25 24 22 21 24 28 30 31 36 38 42 46 48 53 54 51 49 54 59 61 53 50 42 60 50 44 46
54 48 45 43 43 41 42 40 40 38 35 27 25 25 24 25 24 22 20 22 25 25 26 29 32 39 44 46 51 54 52 53 50 48 50 60 62 53 47 47 48 48 50
50 47 47 46 45 42 41 39 37 32 26 26 26 24 25 23 22 20 20 21 23 23 25 30 36 43 43 45 49 51 52 50 45 52 50 51 63 62 74 47 43 50 47
49 48 48 47 43 41 39 31 27 26 27 26 25 24 22 22 21 20 19 22 22 25 28 32 39 43 39 43 46 46 43 37 35 45 52 50 54 61 64 61 56 57 28
50 51 49 46 41 36 30 26 26 27 27 25 23 21 21 22 23 23 22 24 25 28 33 35 40 40 36 40 40 36 35 26 18 22 38 44 47 50 59 60 55 52 43
47 48 44 35 31 27 25 24 24 25 24 23 19 18 20 23 24 25 25 24 28 31 34 35 38 39 33 37 36 34 31 23 13 12 23 33 39 43 51 59 56 51 55
39 30 26 24 24 23 23 21 20 20 17 15 15 17 20 22 23 25 27 27 30 30 31 33 34 35 31 33 32 31 30 17 12 12 9 26 30 35 43 48 55 55 51
24 21 20 20 20 21 19 17 16 15 13 12 13 15 17 19 20 22 24 27 28 27 28 29 30 31 30 28 30 27 26 14 13 12 27 17 26 19 15 22 33 46 49
22 20 20 19 20 18 17 16 16 15 14 12 13 15 15 17 18 18 19 21 24 25 25 26 28 29 28 26 26 25 22 23 18 14 14 13 13 16 20 36 40 32 46
19 19 19 20 19 18 17 17 16 16 16 15 14 15 17 17 18 19 19 20 21 22 24 26 28 28 27 25 23 22 21 15 18 17 12 8 13 13 14 20 28 32 32
22 21 20 20 20 18 20 21 18 17 18 17 17 17 17 18 18 19 20 21 22 22 24 26 27 28 28 27 24 21 19 18 14 12 14 11 15 16 13 16 22 28 31
24 23 22 22 21 22 27 25 23 22 22 20 19 19 19 20 21 21 21 23 23 23 25 27 27 29 28 28 27 24 20 17 16 14 13 13 12 15 19 19 21 23 25
25 24 24 25 26 28 25 26 27 27 27 26 25 25 25 24 25 25 26 25 25 25 26 27 28 29 29 28 28 26 24 21 18 16 14 12 14 16 18 20 23 26 28
28 27 26 28 29 36 31 32 32 31 31 32 31 30 30 29 27 26 26 26 26 28 28 29 29 31 32 31 30 29 27 24 22 20 18 17 16 14 15 16 21 25 27
31 29 30 32 33 32 36 37 36 34 34 34 35 34 34 33 31 30 29 29 29 29 30 31 32 32 33 33 32 31 31 29 27 23 22 20 20 21 22 22 21 22 23
37 36 36 35 36 38 39 38 39 37 37 37 37 37 37 36 35 35 34 34 34 33 34 33 34 34 35 35 36 36 35 34 31 29 28 25 23 22 22 26 29 30 31
39 40 40 40 42 40 44 44 43 41 40 40 39 39 39 40 39 38 37 38 38 39 38 38 38 38 38 39 38 38 38 38 36 33 30 29 28 26 27 27 28 31 35
34 38 41 42 43 46 46 47 46 42 41 43 43 44 43 44 44 43 43 43 44 44 44 43 42 42 41 43 42 42 42 42 40 38 37 33 31 32 32 32 34 36 37
32 34 37 39 37 38 43 46 48 46 44 45 47 47 47 48 50 49 47 48 48 49 48 45 45 45 46 47 47 46 46 46 45 42 39 38 38 36 35 35 36 40 41
35 37 38 38 38 37 41 46 49 48 45 47 49 50 52 53 54 53 51 51 50 53 50 48 49 50 51 53 52 50 48 49 48 45 43 41 40 40 40 41 40 40 40
Wind_Direction
294 296 297 298 299 297 296 294 293 291 289 288 288 289 289 289 288 287 286 285 284 283 282 283 284 284 284 284 283 281 280 278 275 270 266 264 262 260 259 260 259 257 256
292 294 297 297 298 297 295 292 290 289 289 289 290 289 289 288 288 286 287 287 286 286 287 287 288 286 285 286 285 286 286 282 278 274 268 263 261 259 257 256 257 258 257
291 293 295 296 297 296 295 292 289 288 290 291 289 288 288 288 287 287 287 286 288 289 284 284 286 287 288 291 290 291 292 291 288 278 269 263 259 257 257 255 253 254 254
291 293 294 294 295 296 297 294 291 289 288 287 288 290 290 290 289 289 289 289 284 282 281 281 286 282 284 289 287 287 284 281 282 279 271 262 258 254 253 254 253 252 252
291 293 293 294 295 294 294 293 290 288 287 289 292 293 294 293 289 286 285 284 283 281 278 282 287 288 289 290 287 288 285 281 278 271 262 259 254 252 252 250 249 251 253
292 292 293 294 295 295 291 289 288 288 289 291 295 294 287 281 280 282 283 283 276 279 282 288 290 291 292 291 290 292 293 286 275 261 252 243 248 249 256 249 248 248 247
293 296 295 294 292 290 288 288 287 290 292 297 294 280 276 281 287 288 283 279 283 288 292 293 295 296 299 295 297 302 296 284 274 262 247 241 238 231 245 245 243 244 249
297 296 296 295 293 290 288 286 287 288 293 288 273 269 274 280 284 283 281 286 290 293 294 293 298 302 305 306 305 308 300 283 266 254 247 239 232 234 235 240 233 240 243
293 295 296 295 292 287 283 283 286 288 283 271 271 275 281 286 286 284 288 288 295 296 297 306 312 314 313 310 316 313 299 279 267 248 242 240 234 230 235 246 243 236 254
294 295 293 291 289 287 284 282 280 274 270 270 274 277 279 283 281 283 286 288 290 293 302 311 317 319 316 319 328 323 322 301 272 244 236 236 236 234 232 238 239 247 252
294 292 292 291 285 283 276 269 267 268 275 276 271 275 282 281 278 280 283 285 286 298 309 315 319 323 322 332 338 334 336 327 302 254 231 232 236 237 236 236 239 248 236
294 292 292 291 283 270 261 262 269 277 279 274 274 280 286 288 282 280 281 287 291 299 311 318 325 326 328 339 340 341 340 344 310 252 229 232 238 242 236 236 237 239 239
297 300 298 291 273 261 258 266 274 279 276 275 281 289 292 295 294 285 282 288 296 305 315 324 332 330 331 341 344 339 342 346 348 221 231 234 240 247 243 240 238 240 241
299 295 291 279 263 259 266 276 281 283 281 281 290 294 299 302 302 296 289 292 298 309 319 330 337 336 333 338 350 347 352 349 5 313 247 153 186 170 204 221 234 243 247
290 294 289 270 257 257 266 272 278 279 280 282 287 298 307 313 315 312 309 306 306 314 323 334 341 343 339 338 343 351 346 344 344 331 329 306 222 242 236 240 249 252 234
288 287 280 268 260 262 269 272 282 282 282 284 287 293 302 308 312 313 315 316 314 320 328 335 341 345 344 341 338 341 349 343 333 341 319 251 258 276 268 246 251 248 243
280 275 265 259 256 260 256 271 277 281 284 285 286 290 297 303 307 311 314 316 320 325 328 332 337 341 346 345 340 335 332 342 333 324 324 300 255 246 248 242 238 239 241
275 271 265 257 247 254 261 269 273 276 281 283 286 289 294 300 304 308 312 316 320 322 323 326 332 334 339 343 343 337 329 318 320 325 304 290 274 262 251 243 237 228 233
270 267 263 255 249 248 262 264 271 271 274 278 281 286 291 295 299 302 303 307 312 316 320 322 326 328 331 336 338 339 332 322 311 299 298 296 282 271 263 256 250 245 239
267 267 265 264 260 254 257 260 271 270 269 272 276 280 285 289 293 298 301 305 308 309 312 317 321 323 325 329 331 333 334 327 314 305 293 281 277 274 269 261 257 255 252
264 270 272 268 263 260 264 259 267 271 269 270 272 275 278 282 286 291 294 299 304 309 312 313 317 319 320 321 322 325 326 328 322 308 295 289 281 271 265 263 258 257 256
263 265 270 270 269 262 264 263 264 270 272 271 273 274 276 279 282 285 289 293 297 299 303 309 311 313 314 316 317 318 319 320 320 317 304 293 283 278 278 273 270 267 266
263 266 266 266 268 270 263 262 264 267 270 271 272 274 275 276 279 281 285 289 292 295 296 300 303 307 311 310 310 311 312 313 313 311 308 298 289 283 281 278 276 274 269
272 267 269 271 273 269 263 259 261 264 267 270 272 273 274 277 279 280 282 285 287 290 292 296 298 301 305 306 305 304 305 306 307 306 303 298 291 284 282 279 276 273 272
280 273 273 277 280 275 264 261 262 265 266 268 270 271 273 275 277 278 280 282 285 286 287 292 294 297 298 301 300 299 299 300 300 298 296 293 290 286 282 281 282 278 272
279 277 277 279 278 275 271 265 263 264 266 267 269 272 273 274 276 278 279 280 282 282 284 287 292 295 297 298 298 297 296 295 294 293 291 288 286 284 281 281 282 282 280